Tracking 27124 objects as of 31-Mar-2023
HD Live streaming from Space Station
objects crossing your sky now

ARIANE 3 DEB (SYLDA)

Track ARIANE 3 DEB (SYLDA) now!


NORAD ID: 15166
Int'l Code: 1984-081D
Perigee: 659.4 km
Apogee: 33,414.3 km
Inclination: 7.2 °
Period: 594.0 minutes
Semi major axis: 23407 km
RCS: 2.1732 m2 (large)
Launch date: August 4, 1984
Source: France (FR)
Launch site: FRENCH GUIANA (FRGUI)

Note: This is SATELLITE DEBRIS
Your satellite tracking list
Your tracking list is empty




NASA's NSSDC Master Catalog

Two Line Element Set (TLE):
1 15166U 84081D   23089.14878114 -.00000351  00000-0 -50132-2 0  9990
2 15166   7.2444   3.9759 6996555 302.3372   8.5852  2.42415172247650
Source of the keplerian elements: AFSPC